Flag for Canada Weather past 2 weeks in Thompson, Manitoba, Canada

Now
23 °F

Clear.


Feels Like: 23 °F
Forecast: 22 / 51 °F
Wind: No wind

Location: Thompson

Current Time: May 5, 2015 at 4:18:11 AM

Latest Report: May 5, 2015 at 3:00 AM


Visibility: 15 mi

Pressure: 30.22 "Hg

Humidity: 80%

Dew point: 18 °F

Location of ThompsonLocation

Historic Weather in Thompson — Graph

°F

Thompson temperature yesterday

Maximum temperature yesterday: 43 °F (at 5:00 PM)
Minimum temperature yesterday: 27 °F (at 11:00 PM)
Average temperature yesterday: 34 °F

Past Weeks' High & Low Weather Summary

 TemperatureHumidityPressure
High64 °F (May 1, 7:00 PM)100% (Apr 26, 3:00 AM)30.28 "Hg (Apr 26, 3:00 AM)
Low9 °F (Apr 23, 7:00 AM)22% (May 1, 7:00 PM)29.55 "Hg (May 2, 3:00 PM)
Average35 °F68%30.02 "Hg
* Reported Apr 20 3:00 AM — May 5 3:00 AM, Thompson, Weather by CustomWeather, © 2015

Note: Actual official high and low records may vary slightly from our data, if they occured in-between our weather recording intervals... More about our weather records

Advertising

Thompson weather history for previous 24 hours

 ConditionsComfort  
Time TempWeatherWind HumidityBarometerVisibility
3:00 AM
Tue, May 5
23 °FClear.No wind80%30.22 "Hg15 mi
2:00 AM23 °FClear.2 mph86%30.21 "Hg15 mi
1:00 AM25 °FClear.No wind80%30.19 "Hg15 mi
12:00 AM25 °FClear.No wind74%30.19 "Hg15 mi
11:00 PM
Mon, May 4
27 °FClear.No wind74%30.18 "Hg15 mi
10:00 PM32 °FPassing clouds.5 mph55%30.17 "Hg15 mi
9:00 PM37 °FPassing clouds.6 mph45%30.15 "Hg15 mi
8:00 PM41 °FPassing clouds.10 mph39%30.14 "Hg15 mi
7:00 PM43 °FPassing clouds.13 mph36%30.14 "Hg15 mi
6:00 PM43 °FScattered clouds.13 mph36%30.13 "Hg15 mi
5:00 PM43 °FScattered clouds.10 mph36%30.12 "Hg15 mi
3:00 PM41 °FPartly sunny.16 mph42%30.12 "Hg15 mi
2:00 PM39 °FLight snow. Partly sunny.15 mph45%30.11 "Hg15 mi
1:00 PM37 °FLight snow. Partly sunny.12 mph52%30.12 "Hg15 mi
12:00 PM34 °FMore clouds than sun.18 mph56%30.12 "Hg15 mi
11:00 AM34 °FLight snow. Mostly cloudy.15 mph75%30.11 "Hg12 mi
10:00 AM30 °FSnow flurries. Mostly cloudy.17 mph80%30.10 "Hg10 mi
9:52 AM32 °FSnow flurries. Mostly cloudy.15 mph75%30.09 "Hg10 mi
9:00 AM32 °FLight snow. Mostly cloudy.12 mph87%30.08 "Hg12 mi
8:00 AM30 °FLight snow. Overcast.3 mph93%30.06 "Hg10 mi
7:00 AM30 °FBroken clouds.5 mph100%30.06 "Hg15 mi
6:00 AM30 °FPassing clouds.3 mph93%30.05 "Hg15 mi
5:00 AM30 °FPassing clouds.5 mph93%30.03 "Hg15 mi
4:00 AM32 °FLight snow. Mostly cloudy.8 mph93%30.01 "Hg15 mi
Weather by CustomWeather, © 2015

See weather overviewHow to use our weather pages